Location: Borotín
(49.5055°N, 14.6142°E)
Time: 12:33:54
(UTC+00:00)

Cosmos 1975 Rocket - Pass Details

Date: 27 May 2022
Orbit: 603 x 633 km, 82.5° (Epoch: 26 June)

Event Time Altitude Azimuth Distance (km) Brightness Sun altitude
Exits shadow 00:56:42 23° 224° (SW) 1,329 4.2 -14.5°
Maximum altitude 00:59:06 45° 285° (WNW) 856 3.6 -14.3°
Drops below altitude 10° 01:03:25 10° 359° (N) 2,024 6.6 -14.0°
Sets 01:05:46 0° 6° (N) 2,940 7.8 -13.8°
